Weather History for Pine Bluff, AR

Change the Weather History Date:

Sunday, May 25, 2014

  Actual Average Record
Temperature  
Mean Temperature 77 °F 74 °F  
Max Temperature 89 °F 84 °F 98 °F (1902)
Min Temperature 64 °F 64 °F 49 °F (1979)
Degree Days  
Heating Degree Days 0 0  
Month to date heating degree days 46 15  
Since 1 July heating degree days 3453 2879  
Cooling Degree Days 12 9  
Month to date cooling degree days 146 160  
Year to date cooling degree days 200 247  
Growing Degree Days 26 (Base 50)    
Moisture  
Dew Point 65 °F    
Average Humidity 72    
Maximum Humidity 100    
Minimum Humidity 43    
Precipitation  
Precipitation 0.00 in 0.15 in 1.88 in (1982)
Month to date precipitation 3.34 4.11  
Year to date precipitation 18.46 22.26  
Snow  
Snow 0.00 in 0.00 in - ()
Month to date snowfall 0.0 0.0  
Since 1 July snowfall 3.7 3.1  
Snow Depth 0.00 in    
Sea Level Pressure  
Sea Level Pressure 30.04 in    
Wind  
Wind Speed 4 mph (South)    
Max Wind Speed 10 mph    
Max Gust Speed 15 mph    
Visibility 8 miles    
Events Fog    
T = Trace of Precipitation, MM = Missing Value Source: NWS Daily Summary

Daily Weather History Graph

Daily Weather History Graph

Search for Another Location

Airport:

Trip Planner

Search our weather history database for the weather conditions in past years. The results will help you decide how hot, cold, wet, or windy it might be!

Date:

Astronomy

May. 25, 2014 Rise Set
Actual Time 5:59 AM CDT 8:09 PM CDT
Civil Twilight 5:31 AM CDT 8:38 PM CDT
Nautical Twilight 4:56 AM CDT 9:13 PM CDT
Astronomical Twilight 4:19 AM CDT 9:50 PM CDT
Moon 3:55 AM CDT (5/25) 5:18 PM CDT (5/25)
Length of Visible Light 15h 06m
Length of Day
14h 10m
Waning Crescent, 10% of the Moon is Illuminated
May 25
Waning Crescent
May 28
New
Jun 5
First Quarter
Jun 12
Full
Jun 19
Last Quarter

Hourly Weather History & Observations

Time (CDT) Temp. Heat Index Dew Point Humidity Pressure Visibility Wind Dir Wind Speed Gust Speed Precip Events Conditions
12:53 AM 69.8 °F - 66.2 °F 88% 30.03 in 10.0 mi Calm Calm - N/A   Clear
1:53 AM 68.0 °F - 66.0 °F 93% 30.01 in 10.0 mi Calm Calm - N/A   Overcast
2:53 AM 68.0 °F - 64.9 °F 90% 30.01 in 10.0 mi Calm Calm - N/A   Scattered Clouds
3:53 AM 68.0 °F - 64.9 °F 90% 30.01 in 10.0 mi Calm Calm - N/A   Partly Cloudy
4:53 AM 66.0 °F - 64.0 °F 93% 30.01 in 4.0 mi Calm Calm - N/A   Clear
5:33 AM 64.4 °F - 64.4 °F 100% 30.04 in 2.0 mi Calm Calm - N/A   Clear
5:43 AM 64.4 °F - 64.4 °F 100% 30.04 in 5.0 mi Calm Calm - N/A   Clear
5:53 AM 66.0 °F - 64.0 °F 93% 30.04 in 6.0 mi Calm Calm - N/A   Clear
6:04 AM 64.4 °F - 64.4 °F 100% 30.05 in 1.5 mi Calm Calm - N/A   Scattered Clouds
6:12 AM 64.4 °F - 62.6 °F 94% 30.06 in 0.5 mi Calm Calm - N/A Fog Fog
6:23 AM 64.4 °F - 64.4 °F 100% 30.06 in 1.8 mi Calm Calm - N/A   Scattered Clouds
6:36 AM 64.4 °F - 64.4 °F 100% 30.06 in 3.0 mi Calm Calm - N/A   Partly Cloudy
6:44 AM 66.2 °F - 64.4 °F 94% 30.06 in 2.5 mi Calm Calm - N/A   Clear
6:53 AM 66.9 °F - 66.0 °F 97% 30.05 in 3.0 mi Calm Calm - N/A   Clear
7:53 AM 71.1 °F - 66.0 °F 84% 30.07 in 10.0 mi South 3.5 mph - N/A   Mostly Cloudy
8:53 AM 73.0 °F - 66.0 °F 79% 30.09 in 10.0 mi SW 5.8 mph - N/A   Scattered Clouds
9:53 AM 73.4 °F - 66.2 °F 78% 30.10 in 10.0 mi SSW 6.9 mph - N/A   Mostly Cloudy
10:53 AM 75.9 °F - 66.9 °F 74% 30.09 in 10.0 mi SW 8.1 mph - 0.01 in   Mostly Cloudy
11:53 AM 78.1 °F - 68.0 °F 71% 30.07 in 10.0 mi Variable 3.5 mph - N/A   Clear
12:53 PM 82.9 °F 85.8 °F 68.0 °F 60% 30.07 in 10.0 mi SW 10.4 mph - N/A   Clear
1:53 PM 84.0 °F 85.8 °F 64.9 °F 53% 30.05 in 10.0 mi Variable 4.6 mph - N/A   Partly Cloudy
2:53 PM 84.9 °F 86.6 °F 64.9 °F 51% 30.04 in 10.0 mi West 9.2 mph - N/A   Partly Cloudy
3:53 PM 88.0 °F 88.7 °F 63.0 °F 43% 30.01 in 10.0 mi SE 8.1 mph - N/A   Scattered Clouds
4:53 PM 87.1 °F 87.8 °F 63.0 °F 44% 30.01 in 10.0 mi SSW 4.6 mph - N/A   Mostly Cloudy
5:53 PM 86.0 °F 87.6 °F 64.9 °F 49% 29.99 in 10.0 mi SSE 5.8 mph - N/A   Partly Cloudy
6:53 PM 84.0 °F 86.5 °F 66.9 °F 56% 29.99 in 10.0 mi SE 5.8 mph - N/A   Clear
7:53 PM 79.0 °F - 66.9 °F 66% 30.00 in 10.0 mi South 5.8 mph - N/A   Clear
8:53 PM 75.0 °F - 66.9 °F 76% 30.02 in 10.0 mi South 4.6 mph - N/A   Clear
9:53 PM 73.9 °F - 66.9 °F 79% 30.04 in 10.0 mi South 4.6 mph - N/A   Clear
10:53 PM 72.0 °F - 66.9 °F 84% 30.04 in 10.0 mi South 5.8 mph - N/A   Clear
11:53 PM 71.1 °F - 66.0 °F 84% 30.04 in 10.0 mi South 4.6 mph - N/A   Clear